STARLINK-32837, 62812

Orbit data source: Space-Track

STARLINK-32837, 62812 is a payload satellite owned by SpaceX/Seattle (US) in LEO that was launched on Fri, 24 Jan 2025 UTC via an FALCON 9 launch vehicle from the Air Force Western Test Range (AFWTR). Payload-class satellites include a variety of spacecraft equipped with specific instruments for various scientific and technological missions. These include communications satellites like Starlink; space stations such as the ISS; scientific satellites like the Hubble; Earth observation satellites from companies like Planet Labs, Umbra, and HawkEye 360; GPS; miniature CubeSats for education and research; and military/defense satellites.

Loading next visibility...
Identifier
62812, 2025-018G
Orbit
LEO
Country
Flag of USUS
Related business
Manufacturer
SpaceX/Seattle
Mission
Operational Commercial Communications
Bus & Motor
STARLINK V2M, Unknown motor
Mass
730 kg wet, ~700 kg dry
Launch date (UTC)
2025-01-24 (9 months ago)
Launch vehicle
FALCON 9
Launch site
Air Force Western Test Range (AFWTR)
Object type
Payload
Rocket body
Debris
Shape & HBR
Box + 2 Pan, 17.7 m
Radar Cross Section
33.884 m², Large (>1 m²)

Expand to show TLE details & history
Last TLE update: 16 hours ago

TLE from 16 hours ago
0 STARLINK-32837
1 62812U 25018G   25300.92493464  .00033882  00000-0  11500-2 0  9999
2 62812  53.1606 206.1406 0002264 145.3731 214.7418 15.30223068 42855
Epoch: 2025-10-27T22:11Z
TLE epoch observation values (Epoch: 2025-10-27T22:11:54.352Z)
Latitude
-0°
Longitude
-163.35566°
Altitude
477.321 km
Speed
7.628 km/s
True Right ascension
13h 44m 33s
True Declination
0° 00' 00"
Sunlit
Object was in daylight at epoch
Visualization orbit readout
Latitude
Unknown
Longitude
Unknown
Altitude
Unknown
Speed
Unknown
Apparent Right ascension
Unknown
Apparent Declination
Unknown
Sunlit
N/A
Visualization observer readout
Local Sidereal Time
09:38:40
Azimuth
Unknown
Elevation
Unknown
Doppler factor
Unknown
Orbital elements
Apogee altitude
476.954 km
Perigee altitude
473.851 km
Semi-major axis
6,853.54 km
Eccentricity
0.00023
Inclination
53.1606°
RAAN
206.1406°
Arg. of periapsis
145.3731°
True anomaly
214.72702°
Mean anomaly
214.7418°
Eccentric anomaly
214.73441°
Mean motion
3.82535 °/min
Orbital period
94.11 mins
BSTAR
0.00115
Loading maneuver chart data...
Computing Atmospheric mass density...
Loading historical data...
Loading historical data...
Loading historical data...
Loading historical data...
Loading historical data...
Loading historical data...
Loading historical data...

Documentation

Showing up to 5 results
|